QZS-3

Last updated on Wed Jan 09 2019 02:59:22 GMT+0000 (Coordinated Universal Time)

1 42917U 17048A 19008.34808413 -.00000345 00000-0 00000+0 0 9994 2 42917 0.0608 157.7752 0001941 146.4535 55.7390 1.00272797 5139
UTC large
Height (km)
Speed (km/s)
/
Latitude / Longitude
Inclination (degrees)
Orbital Period (minutes)
Azimuth
Elevation
Range (km)
Doppler Factor

Next 0 passes for location: London (51.5072 / 0.1276)

Sorry there are no passes over London.